Location: Arbon
(43.0005°N, 0.7472°E)
Time: 06:29:18
(UTC+00:00)

Vanguard 2 Rocket - Pass Details

Date: 24 June 2021
Orbit: 554 x 3325 km, 32.9° (Epoch: 26 July)

Event Time Altitude Azimuth Distance (km) Brightness Sun altitude
Rises 00:49:18 0° 277° (W) 6,549 11.2 -22.6°
Reaches altitude 10° 00:56:17 10° 261° (W) 4,967 10.4 -22.3°
Enters shadow 01:01:52 16° 238° (WSW) 3,944 9.7 -22.1°
